Weather History for Pittsburgh, PA

Change the Weather History Date:

Monday, April 22, 2013

  Actual Average Record
Temperature  
Mean Temperature 52 °F 53 °F  
Max Temperature 63 °F 64 °F 86 °F (1902)
Min Temperature 41 °F 42 °F 22 °F (1875)
Degree Days  
Heating Degree Days 13 12  
Month to date heating degree days 301 343  
Since 1 July heating degree days 5307 5388  
Cooling Degree Days 0 0  
Month to date cooling degree days 17 0  
Year to date cooling degree days 17 1  
Growing Degree Days 2 (Base 50)    
Moisture  
Dew Point 24 °F    
Average Humidity 35    
Maximum Humidity 49    
Minimum Humidity 21    
Precipitation  
Precipitation 0.00 in 0.11 in 0.85 in (1931)
Month to date precipitation 2.47 2.29  
Year to date precipitation 9.21 10.33  
Snow  
Snow 0.00 in 0.00 in 1.00 in (1931)
Month to date snowfall T 1.4  
Since 1 July snowfall 57.4 41.3  
Snow Depth 0.00 in    
Sea Level Pressure  
Sea Level Pressure 30.39 in    
Wind  
Wind Speed 10 mph (ESE)    
Max Wind Speed 17 mph    
Max Gust Speed 22 mph    
Visibility 10 miles    
Events      
T = Trace of Precipitation, MM = Missing Value Source: NWS Daily Summary

Daily Weather History Graph

Daily Weather History Graph

Search for Another Location

Airport:

Trip Planner

Search our weather history database for the weather conditions in past years. The results will help you decide how hot, cold, wet, or windy it might be!

Date:

Astronomy

Apr. 22, 2013 Rise Set
Actual Time 6:31 AM EDT 8:07 PM EDT
Civil Twilight 6:02 AM EDT 8:36 PM EDT
Nautical Twilight 5:28 AM EDT 9:11 PM EDT
Astronomical Twilight 4:51 AM EDT 9:48 PM EDT
Moon 4:54 PM EDT (4/22) 4:26 AM EDT (4/22)
Length of Visible Light 14h 33m
Length of Day
13h 35m
Waxing Gibbous, 87% of the Moon is Illuminated
Apr 22
Waxing Gibbous
Apr 25
Full
May 2
Last Quarter
May 9
New
May 18
First Quarter

Hourly Weather History & Observations

Time (EDT) Temp. Windchill Dew Point Humidity Pressure Visibility Wind Dir Wind Speed Gust Speed Precip Events Conditions
12:51 AM 44.1 °F 40.1 °F 19.9 °F 38% 30.49 in 10.0 mi ESE 6.9 mph - N/A   Mostly Cloudy
1:51 AM 43.0 °F 38.2 °F 21.0 °F 42% 30.48 in 10.0 mi ESE 8.1 mph - N/A   Mostly Cloudy
2:51 AM 43.0 °F 39.5 °F 21.9 °F 43% 30.46 in 10.0 mi ESE 5.8 mph - N/A   Mostly Cloudy
3:51 AM 42.1 °F 37.7 °F 23.0 °F 47% 30.45 in 10.0 mi ESE 6.9 mph - N/A   Overcast
4:51 AM 43.0 °F 38.2 °F 23.0 °F 45% 30.44 in 10.0 mi ESE 8.1 mph - N/A   Overcast
5:51 AM 42.1 °F 37.7 °F 23.0 °F 47% 30.44 in 10.0 mi ESE 6.9 mph - N/A   Overcast
6:51 AM 42.1 °F 37.1 °F 24.1 °F 49% 30.45 in 10.0 mi ESE 8.1 mph - N/A   Overcast
7:51 AM 43.0 °F 37.2 °F 24.1 °F 47% 30.45 in 10.0 mi ESE 10.4 mph - N/A   Mostly Cloudy
8:51 AM 46.9 °F - 24.1 °F 41% 30.46 in 10.0 mi ESE 13.8 mph - N/A   Mostly Cloudy
9:51 AM 48.9 °F - 25.0 °F 39% 30.46 in 10.0 mi ESE 15.0 mph - N/A   Scattered Clouds
10:51 AM 52.0 °F - 25.0 °F 35% 30.47 in 10.0 mi SE 12.7 mph - N/A   Scattered Clouds
11:51 AM 54.0 °F - 28.0 °F 37% 30.44 in 10.0 mi ESE 9.2 mph - N/A   Partly Cloudy
12:51 PM 55.9 °F - 28.0 °F 34% 30.41 in 10.0 mi Variable 6.9 mph 17.3 mph N/A   Clear
1:51 PM 57.9 °F - 28.0 °F 32% 30.38 in 10.0 mi SE 9.2 mph 19.6 mph N/A   Clear
2:51 PM 60.1 °F - 27.0 °F 28% 30.36 in 10.0 mi East 8.1 mph 16.1 mph N/A   Partly Cloudy
3:51 PM 61.0 °F - 26.1 °F 26% 30.34 in 10.0 mi Variable 5.8 mph - N/A   Partly Cloudy
4:51 PM 62.1 °F - 25.0 °F 24% 30.31 in 10.0 mi SE 13.8 mph - N/A   Partly Cloudy
5:51 PM 61.0 °F - 23.0 °F 23% 30.30 in 10.0 mi ESE 12.7 mph - N/A   Clear
6:51 PM 61.0 °F - 21.9 °F 22% 30.29 in 10.0 mi SE 8.1 mph 19.6 mph N/A   Clear
7:51 PM 59.0 °F - 19.0 °F 21% 30.30 in 10.0 mi SE 10.4 mph - N/A   Clear
8:51 PM 55.9 °F - 19.0 °F 24% 30.31 in 10.0 mi ESE 10.4 mph - N/A   Clear
9:51 PM 53.1 °F - 21.9 °F 30% 30.31 in 10.0 mi ESE 11.5 mph - N/A   Clear
10:51 PM 52.0 °F - 25.0 °F 35% 30.31 in 10.0 mi ESE 11.5 mph - N/A   Clear
11:51 PM 50.0 °F - 26.1 °F 39% 30.30 in 10.0 mi ESE 11.5 mph - N/A   Clear